Time,TemperatureF,DewpointF,PressureIn,WindDirection,WindDirectionDegrees,WindSpeedMPH,WindSpeedGustMPH,Humidity,HourlyPrecipIn,Conditions,Clouds,dailyrainin,SoftwareType,DateUTC
2013-11-11 00:00:00,31.9,17.6,30.27,ESE,105,3.0,3.8,55,0.00,,CLR,0.00,VWS V14.00,2013-11-11 05:00:00,
2013-11-11 00:01:00,31.9,17.6,30.27,ESE,105,2.5,3.2,55,0.00,,CLR,0.00,VWS V14.00,2013-11-11 05:01:00,
2013-11-11 00:02:00,31.9,17.6,30.27,ESE,105,3.0,3.2,55,0.00,,CLR,0.00,VWS V14.00,2013-11-11 05:02:00,
2013-11-11 00:07:00,32.3,18.4,30.27,East,87,2.5,3.2,56,0.00,,CLR,0.00,VWS V14.00,2013-11-11 05:07:00,
2013-11-11 00:12:00,31.9,18.4,30.27,ESE,114,0.0,3.2,57,0.00,,CLR,0.00,VWS V14.00,2013-11-11 05:12:00,
2013-11-11 00:17:00,31.7,17.9,30.27,ESE,114,0.0,0.0,56,0.00,,CLR,0.00,VWS V14.00,2013-11-11 05:17:00,
2013-11-11 00:22:00,31.7,17.9,30.27,ESE,122,0.0,0.0,56,0.00,,CLR,0.00,VWS V14.00,2013-11-11 05:22:00,
2013-11-11 00:27:00,31.2,18.1,30.27,ESE,122,2.5,3.2,58,0.00,,CLR,0.00,VWS V14.00,2013-11-11 05:27:00,
2013-11-11 00:32:00,30.8,18.6,30.24,ESE,122,0.0,2.7,60,0.00,,CLR,0.00,VWS V14.00,2013-11-11 05:32:00,
2013-11-11 00:37:00,30.8,18.6,30.24,ESE,122,0.0,0.0,60,0.00,,CLR,0.00,VWS V14.00,2013-11-11 05:37:00,
2013-11-11 00:42:00,31.0,18.8,30.24,ESE,122,0.0,0.0,60,0.00,,CLR,0.00,VWS V14.00,2013-11-11 05:42:00,
2013-11-11 00:47:00,30.6,18.0,30.24,ESE,104,0.0,0.0,59,0.00,,CLR,0.00,VWS V14.00,2013-11-11 05:47:00,
2013-11-11 00:52:00,30.3,18.5,30.24,ESE,104,0.0,0.0,61,0.00,,CLR,0.00,VWS V14.00,2013-11-11 05:52:00,
2013-11-11 00:57:00,29.7,18.3,30.24,ESE,104,0.0,0.0,62,0.00,,CLR,0.00,VWS V14.00,2013-11-11 05:57:00,
2013-11-11 01:02:00,29.7,18.3,30.24,East,88,0.0,0.0,62,0.00,,CLR,0.00,VWS V14.00,2013-11-11 06:02:00,
2013-11-11 01:08:00,29.9,17.7,30.24,East,88,0.0,0.0,60,0.00,,CLR,0.00,VWS V14.00,2013-11-11 06:08:00,
2013-11-11 01:13:00,29.7,17.2,30.24,East,87,0.0,0.0,59,0.00,,CLR,0.00,VWS V14.00,2013-11-11 06:13:00,
2013-11-11 01:18:00,29.7,17.2,30.24,East,87,0.0,0.0,59,0.00,,CLR,0.00,VWS V14.00,2013-11-11 06:18:00,
2013-11-11 01:23:00,29.7,17.2,30.24,NW,306,0.0,0.0,59,0.00,,CLR,0.00,VWS V14.00,2013-11-11 06:23:00,
2013-11-11 01:28:00,29.7,16.8,30.24,NNW,331,0.0,0.0,58,0.00,,CLR,0.00,VWS V14.00,2013-11-11 06:28:00,
2013-11-11 01:33:00,29.7,16.8,30.24,NW,322,0.0,0.0,58,0.00,,CLR,0.00,VWS V14.00,2013-11-11 06:33:00,
2013-11-11 01:38:00,29.7,16.8,30.24,NW,316,0.0,0.0,58,0.00,,CLR,0.00,VWS V14.00,2013-11-11 06:38:00,
2013-11-11 01:43:00,29.5,16.6,30.24,SSE,164,3.0,3.8,58,0.00,,CLR,0.00,VWS V14.00,2013-11-11 06:43:00,
2013-11-11 01:48:00,29.4,16.8,30.24,SSE,149,3.0,3.2,59,0.00,,CLR,0.00,VWS V14.00,2013-11-11 06:48:00,
2013-11-11 01:53:00,29.5,17.8,30.24,ESE,116,2.5,4.3,61,0.00,,CLR,0.00,VWS V14.00,2013-11-11 06:53:00,
2013-11-11 01:58:00,29.5,17.4,30.24,ESE,116,0.0,0.0,60,0.00,,CLR,0.00,VWS V14.00,2013-11-11 06:58:00,
2013-11-11 02:03:00,29.5,17.4,30.24,ESE,103,0.0,0.0,60,0.00,,CLR,0.00,VWS V14.00,2013-11-11 07:03:00,
2013-11-11 02:08:00,29.5,17.4,30.24,North,350,0.0,0.0,60,0.00,,CLR,0.00,VWS V14.00,2013-11-11 07:08:00,
2013-11-11 02:13:00,29.7,17.2,30.24,North,350,0.0,0.0,59,0.00,,CLR,0.00,VWS V14.00,2013-11-11 07:13:00,
2013-11-11 02:18:00,29.7,18.7,30.24,East,91,0.0,0.0,63,0.00,,CLR,0.00,VWS V14.00,2013-11-11 07:18:00,
2013-11-11 02:23:00,29.4,19.1,30.24,East,95,0.0,0.0,65,0.00,,CLR,0.00,VWS V14.00,2013-11-11 07:23:00,
2013-11-11 02:28:00,29.4,18.3,30.24,WNW,302,3.4,3.8,63,0.00,,CLR,0.00,VWS V14.00,2013-11-11 07:28:00,
2013-11-11 02:34:00,28.8,17.4,30.24,NNW,335,0.0,0.0,62,0.00,,CLR,0.00,VWS V14.00,2013-11-11 07:34:00,
2013-11-11 02:39:00,28.6,17.3,30.24,North,6,0.0,3.2,62,0.00,,CLR,0.00,VWS V14.00,2013-11-11 07:39:00,
2013-11-11 02:44:00,28.6,17.3,30.24,North,0,0.0,2.7,62,0.00,,CLR,0.00,VWS V14.00,2013-11-11 07:44:00,
2013-11-11 02:49:00,28.6,16.9,30.24,North,2,0.0,0.0,61,0.00,,CLR,0.00,VWS V14.00,2013-11-11 07:49:00,
2013-11-11 02:54:00,28.6,16.9,30.24,North,3,0.0,2.7,61,0.00,,CLR,0.00,VWS V14.00,2013-11-11 07:54:00,
2013-11-11 02:59:00,28.6,17.3,30.24,North,357,0.0,0.0,62,0.00,,CLR,0.00,VWS V14.00,2013-11-11 07:59:00,
2013-11-11 03:04:00,28.2,17.3,30.24,North,357,0.0,0.0,63,0.00,,CLR,0.00,VWS V14.00,2013-11-11 08:04:00,
2013-11-11 03:09:00,28.2,18.7,30.24,ESE,115,0.0,0.0,67,0.00,,CLR,0.00,VWS V14.00,2013-11-11 08:09:00,
2013-11-11 03:14:00,28.2,19.1,30.24,ESE,115,0.0,0.0,68,0.00,,CLR,0.00,VWS V14.00,2013-11-11 08:14:00,
2013-11-11 03:19:00,28.4,19.6,30.24,ESE,115,0.0,0.0,69,0.00,,CLR,0.00,VWS V14.00,2013-11-11 08:19:00,
2013-11-11 03:24:00,28.2,19.4,30.24,ESE,115,0.0,0.0,69,0.00,,CLR,0.00,VWS V14.00,2013-11-11 08:24:00,
2013-11-11 03:29:00,28.2,19.1,30.24,ESE,115,0.0,0.0,68,0.00,,CLR,0.00,VWS V14.00,2013-11-11 08:29:00,
2013-11-11 03:34:00,28.2,19.1,30.24,ESE,115,0.0,0.0,68,0.00,,CLR,0.00,VWS V14.00,2013-11-11 08:34:00,
2013-11-11 03:39:00,28.2,19.1,30.24,East,92,0.0,0.0,68,0.00,,CLR,0.00,VWS V14.00,2013-11-11 08:39:00,
2013-11-11 03:44:00,28.2,19.1,30.24,SSW,206,0.0,0.0,68,0.00,,CLR,0.00,VWS V14.00,2013-11-11 08:44:00,
2013-11-11 03:49:00,28.1,18.2,30.24,SSW,206,0.0,0.0,66,0.00,,CLR,0.00,VWS V14.00,2013-11-11 08:49:00,
2013-11-11 03:55:00,27.7,17.5,30.24,SW,220,0.0,0.0,65,0.00,,CLR,0.00,VWS V14.00,2013-11-11 08:55:00,
2013-11-11 04:00:00,27.7,17.5,30.24,SW,220,0.0,0.0,65,0.00,,CLR,0.00,VWS V14.00,2013-11-11 09:00:00,
2013-11-11 04:05:00,27.7,17.1,30.24,SW,220,0.0,0.0,64,0.00,,CLR,0.00,VWS V14.00,2013-11-11 09:05:00,
2013-11-11 04:10:00,27.7,17.1,30.24,SW,220,0.0,0.0,64,0.00,,CLR,0.00,VWS V14.00,2013-11-11 09:10:00,
2013-11-11 04:15:00,27.7,17.1,30.24,SW,220,0.0,0.0,64,0.00,,CLR,0.00,VWS V14.00,2013-11-11 09:15:00,
2013-11-11 04:20:00,27.7,17.1,30.24,SW,220,0.0,0.0,64,0.00,,CLR,0.00,VWS V14.00,2013-11-11 09:20:00,
2013-11-11 04:25:00,27.9,17.3,30.24,SW,220,0.0,0.0,64,0.00,,CLR,0.00,VWS V14.00,2013-11-11 09:25:00,
2013-11-11 04:30:00,27.7,17.1,30.24,SW,220,0.0,0.0,64,0.00,,CLR,0.00,VWS V14.00,2013-11-11 09:30:00,
2013-11-11 04:35:00,27.7,17.1,30.24,SW,220,0.0,0.0,64,0.00,,CLR,0.00,VWS V14.00,2013-11-11 09:35:00,
2013-11-11 04:40:00,27.9,17.7,30.24,SW,220,0.0,0.0,65,0.00,,CLR,0.00,VWS V14.00,2013-11-11 09:40:00,
2013-11-11 04:45:00,27.9,17.7,30.24,SW,220,0.0,0.0,65,0.00,,CLR,0.00,VWS V14.00,2013-11-11 09:45:00,
2013-11-11 04:50:00,27.9,17.7,30.24,SW,220,0.0,0.0,65,0.00,,CLR,0.00,VWS V14.00,2013-11-11 09:50:00,
2013-11-11 04:55:00,27.7,17.5,30.24,SW,220,0.0,0.0,65,0.00,,CLR,0.00,VWS V14.00,2013-11-11 09:55:00,
2013-11-11 05:00:00,27.7,17.5,30.24,SW,220,0.0,0.0,65,0.00,,CLR,0.00,VWS V14.00,2013-11-11 10:00:00,
2013-11-11 05:05:00,27.5,18.4,30.24,SW,220,0.0,0.0,68,0.00,,CLR,0.00,VWS V14.00,2013-11-11 10:05:00,
2013-11-11 05:10:00,27.5,19.4,30.24,SW,220,0.0,0.0,71,0.00,,CLR,0.00,VWS V14.00,2013-11-11 10:10:00,
2013-11-11 05:15:00,27.5,19.7,30.24,ESE,108,0.0,0.0,72,0.00,,CLR,0.00,VWS V14.00,2013-11-11 10:15:00,
2013-11-11 05:21:00,27.5,20.0,30.24,East,97,0.0,0.0,73,0.00,,CLR,0.00,VWS V14.00,2013-11-11 10:21:00,
2013-11-11 05:26:00,27.7,19.9,30.24,East,91,0.0,0.0,72,0.00,,CLR,0.00,VWS V14.00,2013-11-11 10:26:00,
2013-11-11 05:31:00,27.7,20.2,30.24,East,91,0.0,0.0,73,0.00,,CLR,0.00,VWS V14.00,2013-11-11 10:31:00,
2013-11-11 05:36:00,27.7,20.5,30.24,East,91,0.0,0.0,74,0.00,,CLR,0.00,VWS V14.00,2013-11-11 10:36:00,
2013-11-11 05:41:00,27.7,20.2,30.24,East,91,0.0,0.0,73,0.00,,CLR,0.00,VWS V14.00,2013-11-11 10:41:00,
2013-11-11 05:46:00,27.9,20.0,30.24,East,91,0.0,0.0,72,0.00,,CLR,0.00,VWS V14.00,2013-11-11 10:46:00,
2013-11-11 05:51:00,27.7,19.2,30.24,East,91,0.0,0.0,70,0.00,,CLR,0.00,VWS V14.00,2013-11-11 10:51:00,
2013-11-11 05:56:00,27.7,19.2,30.24,East,91,0.0,0.0,70,0.00,,CLR,0.00,VWS V14.00,2013-11-11 10:56:00,
2013-11-11 06:01:00,27.7,18.9,30.24,East,91,0.0,0.0,69,0.00,,CLR,0.00,VWS V14.00,2013-11-11 11:01:00,
2013-11-11 06:06:00,27.7,18.9,30.24,East,91,0.0,0.0,69,0.00,,CLR,0.00,VWS V14.00,2013-11-11 11:06:00,
2013-11-11 06:11:00,27.7,18.9,30.24,East,91,0.0,0.0,69,0.00,,CLR,0.00,VWS V14.00,2013-11-11 11:11:00,
2013-11-11 06:16:00,27.7,18.5,30.24,East,91,0.0,0.0,68,0.00,,CLR,0.00,VWS V14.00,2013-11-11 11:16:00,
2013-11-11 06:21:00,27.5,18.7,30.24,East,91,0.0,0.0,69,0.00,,CLR,0.00,VWS V14.00,2013-11-11 11:21:00,
2013-11-11 06:26:00,27.5,19.0,30.24,East,91,0.0,0.0,70,0.00,,CLR,0.00,VWS V14.00,2013-11-11 11:26:00,
2013-11-11 06:31:00,27.5,19.0,30.24,East,91,0.0,0.0,70,0.00,,CLR,0.00,VWS V14.00,2013-11-11 11:31:00,
2013-11-11 06:36:00,27.5,18.7,30.24,East,91,0.0,0.0,69,0.00,,CLR,0.00,VWS V14.00,2013-11-11 11:36:00,
2013-11-11 06:42:00,27.5,18.7,30.24,East,91,0.0,0.0,69,0.00,,CLR,0.00,VWS V14.00,2013-11-11 11:42:00,
2013-11-11 06:47:00,27.5,18.4,30.24,East,91,0.0,0.0,68,0.00,,CLR,0.00,VWS V14.00,2013-11-11 11:47:00,
2013-11-11 06:52:00,27.5,18.4,30.24,East,91,0.0,0.0,68,0.00,,CLR,0.00,VWS V14.00,2013-11-11 11:52:00,
2013-11-11 06:57:00,27.5,18.4,30.24,East,91,0.0,0.0,68,0.00,,CLR,0.00,VWS V14.00,2013-11-11 11:57:00,
2013-11-11 07:02:00,27.5,18.4,30.24,East,91,0.0,0.0,68,0.00,,CLR,0.00,VWS V14.00,2013-11-11 12:02:00,
2013-11-11 07:07:00,27.5,18.7,30.24,East,91,0.0,0.0,69,0.00,,CLR,0.00,VWS V14.00,2013-11-11 12:07:00,
2013-11-11 07:12:00,27.5,19.0,30.24,East,91,0.0,0.0,70,0.00,,CLR,0.00,VWS V14.00,2013-11-11 12:12:00,
2013-11-11 07:17:00,27.5,19.0,30.27,East,91,0.0,0.0,70,0.00,,CLR,0.00,VWS V14.00,2013-11-11 12:17:00,
2013-11-11 07:22:00,27.7,19.9,30.27,East,91,0.0,0.0,72,0.00,,CLR,0.00,VWS V14.00,2013-11-11 12:22:00,
2013-11-11 07:27:00,27.9,20.0,30.27,East,91,0.0,0.0,72,0.00,,CLR,0.00,VWS V14.00,2013-11-11 12:27:00,
2013-11-11 07:32:00,27.9,20.0,30.27,East,91,0.0,0.0,72,0.00,,CLR,0.00,VWS V14.00,2013-11-11 12:32:00,
2013-11-11 07:37:00,28.1,19.9,30.27,East,91,0.0,0.0,71,0.00,,CLR,0.00,VWS V14.00,2013-11-11 12:37:00,
2013-11-11 07:42:00,28.2,20.1,30.27,East,91,0.0,0.0,71,0.00,,CLR,0.00,VWS V14.00,2013-11-11 12:42:00,
2013-11-11 07:47:00,28.2,19.7,30.27,East,91,0.0,0.0,70,0.00,,CLR,0.00,VWS V14.00,2013-11-11 12:47:00,
2013-11-11 07:52:00,28.6,19.8,30.27,East,91,0.0,0.0,69,0.00,,CLR,0.00,VWS V14.00,2013-11-11 12:52:00,
2013-11-11 07:57:00,28.8,19.9,30.27,East,91,0.0,0.0,69,0.00,,CLR,0.00,VWS V14.00,2013-11-11 12:57:00,
2013-11-11 08:03:00,28.8,20.3,30.27,South,174,0.0,0.0,70,0.00,,CLR,0.00,VWS V14.00,2013-11-11 13:03:00,
2013-11-11 08:08:00,29.0,20.4,30.27,SSW,196,0.0,0.0,70,0.00,,CLR,0.00,VWS V14.00,2013-11-11 13:08:00,
2013-11-11 08:13:00,29.2,20.6,30.27,SSW,197,0.0,0.0,70,0.00,,CLR,0.00,VWS V14.00,2013-11-11 13:13:00,
2013-11-11 08:18:00,29.5,21.0,30.27,SSW,197,0.0,0.0,70,0.00,,CLR,0.00,VWS V14.00,2013-11-11 13:18:00,
2013-11-11 08:23:00,29.7,21.5,30.27,SSW,197,0.0,0.0,71,0.00,,CLR,0.00,VWS V14.00,2013-11-11 13:23:00,
2013-11-11 08:28:00,29.9,21.7,30.27,WNW,303,0.0,0.0,71,0.00,,CLR,0.00,VWS V14.00,2013-11-11 13:28:00,
2013-11-11 08:33:00,30.3,22.0,30.27,WNW,295,0.0,0.0,71,0.00,,CLR,0.00,VWS V14.00,2013-11-11 13:33:00,
2013-11-11 08:38:00,30.5,22.2,30.27,WNW,295,0.0,0.0,71,0.00,,CLR,0.00,VWS V14.00,2013-11-11 13:38:00,
2013-11-11 08:43:00,30.8,22.5,30.27,WNW,295,0.0,0.0,71,0.00,,CLR,0.00,VWS V14.00,2013-11-11 13:43:00,
2013-11-11 08:49:00,31.0,22.4,30.27,WNW,295,0.0,0.0,70,0.00,,CLR,0.00,VWS V14.00,2013-11-11 13:49:00,
2013-11-11 08:54:00,31.4,22.7,30.27,WNW,295,0.0,0.0,70,0.00,,CLR,0.00,VWS V14.00,2013-11-11 13:54:00,
2013-11-11 08:59:00,31.6,22.6,30.27,West,266,0.0,0.0,69,0.00,,CLR,0.00,VWS V14.00,2013-11-11 13:59:00,
2013-11-11 09:04:00,31.7,22.8,30.27,West,262,0.0,0.0,69,0.00,,CLR,0.00,VWS V14.00,2013-11-11 14:04:00,
2013-11-11 09:09:00,31.9,22.6,30.27,WSW,254,0.0,0.0,68,0.00,,CLR,0.00,VWS V14.00,2013-11-11 14:09:00,
2013-11-11 09:14:00,32.3,22.9,30.27,SSW,199,0.0,0.0,68,0.00,,CLR,0.00,VWS V14.00,2013-11-11 14:14:00,
2013-11-11 09:19:00,32.7,22.9,30.27,SSW,208,0.0,0.0,67,0.00,,CLR,0.00,VWS V14.00,2013-11-11 14:19:00,
2013-11-11 09:24:00,33.0,23.3,30.27,SSW,204,0.0,0.0,67,0.00,,CLR,0.00,VWS V14.00,2013-11-11 14:24:00,
2013-11-11 09:29:00,33.2,23.1,30.27,South,186,0.0,2.7,66,0.00,,CLR,0.00,VWS V14.00,2013-11-11 14:29:00,
2013-11-11 09:34:00,33.6,23.1,30.27,South,186,0.0,0.0,65,0.00,,CLR,0.00,VWS V14.00,2013-11-11 14:34:00,
2013-11-11 09:39:00,33.8,22.9,30.27,SSW,201,0.0,2.7,64,0.00,,CLR,0.00,VWS V14.00,2013-11-11 14:39:00,
2013-11-11 09:44:00,34.3,23.0,30.27,SSW,202,0.0,0.0,63,0.00,,CLR,0.00,VWS V14.00,2013-11-11 14:44:00,
2013-11-11 09:49:00,34.7,23.0,30.27,SW,223,0.0,0.0,62,0.00,,CLR,0.00,VWS V14.00,2013-11-11 14:49:00,
2013-11-11 09:54:00,35.2,23.5,30.27,South,189,3.0,3.8,62,0.00,,CLR,0.00,VWS V14.00,2013-11-11 14:54:00,
2013-11-11 09:59:00,35.8,23.7,30.27,SSW,192,0.0,4.8,61,0.00,,CLR,0.00,VWS V14.00,2013-11-11 14:59:00,
2013-11-11 10:04:00,36.3,23.8,30.27,South,175,0.0,0.0,60,0.00,,CLR,0.00,VWS V14.00,2013-11-11 15:04:00,
2013-11-11 10:10:00,37.1,24.1,30.27,SSE,162,0.0,3.2,59,0.00,,CLR,0.00,VWS V14.00,2013-11-11 15:10:00,
2013-11-11 10:15:00,37.6,24.2,30.27,ESE,122,3.0,3.2,58,0.00,,CLR,0.00,VWS V14.00,2013-11-11 15:15:00,
2013-11-11 10:20:00,38.2,24.3,30.27,South,181,4.4,7.0,57,0.00,,CLR,0.00,VWS V14.00,2013-11-11 15:20:00,
2013-11-11 10:25:00,38.9,24.6,30.27,West,265,3.4,4.3,56,0.00,,CLR,0.00,VWS V14.00,2013-11-11 15:25:00,
2013-11-11 10:30:00,39.5,24.6,30.24,SSW,194,4.4,5.9,55,0.00,,CLR,0.00,VWS V14.00,2013-11-11 15:30:00,
2013-11-11 10:35:00,40.2,24.9,30.24,WSW,250,3.4,5.9,54,0.00,,CLR,0.00,VWS V14.00,2013-11-11 15:35:00,
2013-11-11 10:40:00,41.1,25.7,30.24,SSW,200,3.0,5.9,54,0.00,,CLR,0.00,VWS V14.00,2013-11-11 15:40:00,
2013-11-11 10:45:00,41.3,25.5,30.24,SSE,165,3.4,4.3,53,0.00,,CLR,0.00,VWS V14.00,2013-11-11 15:45:00,
2013-11-11 10:50:00,41.8,25.0,30.24,NW,307,3.4,3.8,51,0.00,,CLR,0.00,VWS V14.00,2013-11-11 15:50:00,
2013-11-11 10:55:00,42.2,24.9,30.24,SSW,203,4.4,4.8,50,0.00,,CLR,0.00,VWS V14.00,2013-11-11 15:55:00,
2013-11-11 11:00:00,42.8,25.4,30.24,SW,219,3.4,7.0,50,0.00,,CLR,0.00,VWS V14.00,2013-11-11 16:00:00,
2013-11-11 11:05:00,43.5,25.6,30.24,West,271,3.9,4.8,49,0.00,,CLR,0.00,VWS V14.00,2013-11-11 16:05:00,
2013-11-11 11:10:00,44.0,26.1,30.24,West,274,3.9,5.9,49,0.00,,CLR,0.00,VWS V14.00,2013-11-11 16:10:00,
2013-11-11 11:15:00,44.2,26.3,30.24,WSW,243,3.9,4.8,49,0.00,,CLR,0.00,VWS V14.00,2013-11-11 16:15:00,
2013-11-11 11:21:00,44.8,26.8,30.24,WSW,238,3.4,5.9,49,0.00,,CLR,0.00,VWS V14.00,2013-11-11 16:21:00,
2013-11-11 11:26:00,44.6,26.1,30.24,WSW,258,2.5,4.3,48,0.00,,CLR,0.00,VWS V14.00,2013-11-11 16:26:00,
2013-11-11 11:31:00,45.1,26.6,30.21,WSW,254,3.0,5.9,48,0.00,,CLR,0.00,VWS V14.00,2013-11-11 16:31:00,
2013-11-11 11:36:00,45.3,25.8,30.21,WSW,246,2.5,4.8,46,0.00,,CLR,0.00,VWS V14.00,2013-11-11 16:36:00,
2013-11-11 11:41:00,45.9,26.8,30.21,South,183,3.0,4.3,47,0.00,,CLR,0.00,VWS V14.00,2013-11-11 16:41:00,
2013-11-11 11:46:00,46.2,26.6,30.21,SW,219,6.4,7.5,46,0.00,,CLR,0.00,VWS V14.00,2013-11-11 16:46:00,
2013-11-11 11:51:00,46.8,26.6,30.21,West,268,3.9,6.4,45,0.00,,CLR,0.00,VWS V14.00,2013-11-11 16:51:00,
2013-11-11 11:56:00,47.3,26.0,30.21,SSW,213,3.9,6.4,43,0.00,,CLR,0.00,VWS V14.00,2013-11-11 16:56:00,
2013-11-11 12:01:00,47.9,25.4,30.21,West,271,5.4,7.5,41,0.00,,CLR,0.00,VWS V14.00,2013-11-11 17:01:00,
2013-11-11 12:06:00,48.5,25.2,30.21,SSW,212,5.9,7.5,40,0.00,,CLR,0.00,VWS V14.00,2013-11-11 17:06:00,
2013-11-11 12:11:00,49.2,25.9,30.21,South,187,3.4,4.3,40,0.00,,CLR,0.00,VWS V14.00,2013-11-11 17:11:00,
2013-11-11 12:16:00,49.9,26.6,30.18,WSW,243,8.4,9.1,40,0.00,,CLR,0.00,VWS V14.00,2013-11-11 17:16:00,
2013-11-11 12:21:00,49.9,26.0,30.18,SSW,203,0.0,4.8,39,0.00,,CLR,0.00,VWS V14.00,2013-11-11 17:21:00,
2013-11-11 12:26:00,50.8,25.5,30.18,SSW,193,3.4,5.9,37,0.00,,CLR,0.00,VWS V14.00,2013-11-11 17:26:00,
2013-11-11 12:31:00,51.0,25.7,30.18,South,184,5.4,7.5,37,0.00,,CLR,0.00,VWS V14.00,2013-11-11 17:31:00,
2013-11-11 12:36:00,51.9,26.5,30.18,South,183,5.4,5.9,37,0.00,,CLR,0.00,VWS V14.00,2013-11-11 17:36:00,
2013-11-11 12:41:00,52.7,26.5,30.18,South,184,5.9,7.5,36,0.00,,CLR,0.00,VWS V14.00,2013-11-11 17:41:00,
2013-11-11 12:47:00,53.0,26.1,30.18,South,181,6.4,9.9,35,0.00,,CLR,0.00,VWS V14.00,2013-11-11 17:47:00,
2013-11-11 12:52:00,53.2,24.9,30.18,South,191,3.0,6.4,33,0.00,,CLR,0.00,VWS V14.00,2013-11-11 17:52:00,
2013-11-11 12:57:00,53.4,25.0,30.18,SSW,199,3.9,7.5,33,0.00,,CLR,0.00,VWS V14.00,2013-11-11 17:57:00,
2013-11-11 13:02:00,54.0,26.2,30.15,SSE,159,5.4,7.5,34,0.00,,CLR,0.00,VWS V14.00,2013-11-11 18:02:00,
2013-11-11 13:07:00,54.3,26.6,30.15,WSW,239,2.5,3.8,34,0.00,,CLR,0.00,VWS V14.00,2013-11-11 18:07:00,
2013-11-11 13:12:00,54.7,26.2,30.15,South,170,5.9,7.0,33,0.00,,CLR,0.00,VWS V14.00,2013-11-11 18:12:00,
2013-11-11 13:17:00,54.9,25.6,30.15,South,176,4.4,7.5,32,0.00,,CLR,0.00,VWS V14.00,2013-11-11 18:17:00,
2013-11-11 13:22:00,54.7,25.4,30.15,South,191,6.4,7.0,32,0.00,,CLR,0.00,VWS V14.00,2013-11-11 18:22:00,
2013-11-11 13:27:00,54.9,25.6,30.15,South,186,5.9,7.5,32,0.00,,CLR,0.00,VWS V14.00,2013-11-11 18:27:00,
2013-11-11 13:32:00,55.1,25.8,30.15,SW,230,5.4,5.9,32,0.00,,CLR,0.00,VWS V14.00,2013-11-11 18:32:00,
2013-11-11 13:37:00,55.4,26.1,30.15,South,177,3.9,5.9,32,0.00,,CLR,0.00,VWS V14.00,2013-11-11 18:37:00,
2013-11-11 13:42:00,55.6,26.2,30.15,SSW,210,4.4,4.8,32,0.00,,CLR,0.00,VWS V14.00,2013-11-11 18:42:00,
2013-11-11 13:47:00,55.8,26.4,30.12,SW,230,10.6,11.5,32,0.00,,CLR,0.00,VWS V14.00,2013-11-11 18:47:00,
2013-11-11 13:52:00,55.6,25.5,30.12,South,177,3.9,4.8,31,0.00,,CLR,0.00,VWS V14.00,2013-11-11 18:52:00,
2013-11-11 13:58:00,55.8,26.4,30.12,South,175,8.4,11.0,32,0.00,,CLR,0.00,VWS V14.00,2013-11-11 18:58:00,
2013-11-11 14:03:00,55.8,25.6,30.12,SSW,203,5.9,7.0,31,0.00,,CLR,0.00,VWS V14.00,2013-11-11 19:03:00,
2013-11-11 14:08:00,55.8,25.6,30.12,South,170,6.4,9.7,31,0.00,,CLR,0.00,VWS V14.00,2013-11-11 19:08:00,
2013-11-11 14:13:00,55.8,24.9,30.12,South,175,8.4,9.9,30,0.00,,CLR,0.00,VWS V14.00,2013-11-11 19:13:00,
2013-11-11 14:18:00,56.0,25.8,30.12,SSE,162,5.9,9.1,31,0.00,,CLR,0.00,VWS V14.00,2013-11-11 19:18:00,
2013-11-11 14:23:00,56.0,25.8,30.12,SSW,198,3.9,6.4,31,0.00,,CLR,0.00,VWS V14.00,2013-11-11 19:23:00,
2013-11-11 14:28:00,56.2,26.0,30.12,SSW,202,3.4,7.0,31,0.00,,CLR,0.00,VWS V14.00,2013-11-11 19:28:00,
2013-11-11 14:33:00,56.0,25.0,30.12,SSW,213,6.4,9.7,30,0.00,,CLR,0.00,VWS V14.00,2013-11-11 19:33:00,
2013-11-11 14:38:00,56.0,25.0,30.12,SSE,166,5.9,9.1,30,0.00,,CLR,0.00,VWS V14.00,2013-11-11 19:38:00,
2013-11-11 14:43:00,56.0,25.0,30.12,South,186,3.4,5.9,30,0.00,,CLR,0.00,VWS V14.00,2013-11-11 19:43:00,
2013-11-11 14:48:00,56.0,24.2,30.12,SSE,162,3.4,9.7,29,0.00,,CLR,0.00,VWS V14.00,2013-11-11 19:48:00,
2013-11-11 14:53:00,56.0,24.2,30.12,South,175,6.4,10.5,29,0.00,,CLR,0.00,VWS V14.00,2013-11-11 19:53:00,
2013-11-11 14:58:00,56.2,24.4,30.12,South,186,8.9,9.9,29,0.00,,CLR,0.00,VWS V14.00,2013-11-11 19:58:00,
2013-11-11 15:03:00,56.3,24.5,30.12,South,189,8.9,9.7,29,0.00,,CLR,0.00,VWS V14.00,2013-11-11 20:03:00,
2013-11-11 15:08:00,56.3,23.7,30.12,South,183,5.9,7.5,28,0.00,,CLR,0.00,VWS V14.00,2013-11-11 20:08:00,
2013-11-11 15:14:00,56.3,24.5,30.12,SW,217,8.4,9.9,29,0.00,,CLR,0.00,VWS V14.00,2013-11-11 20:14:00,
2013-11-11 15:19:00,56.3,24.5,30.12,South,173,5.9,7.5,29,0.00,,CLR,0.00,VWS V14.00,2013-11-11 20:19:00,
2013-11-11 15:24:00,56.5,24.7,30.12,SSW,210,3.4,7.5,29,0.00,,CLR,0.00,VWS V14.00,2013-11-11 20:24:00,
2013-11-11 15:29:00,56.5,24.7,30.12,South,187,7.9,9.7,29,0.00,,CLR,0.00,VWS V14.00,2013-11-11 20:29:00,
2013-11-11 15:34:00,56.5,24.7,30.09,WSW,239,4.4,7.0,29,0.00,,CLR,0.00,VWS V14.00,2013-11-11 20:34:00,
2013-11-11 15:39:00,56.5,23.8,30.09,South,191,5.4,5.9,28,0.00,,CLR,0.00,VWS V14.00,2013-11-11 20:39:00,
2013-11-11 15:44:00,56.3,23.7,30.09,SW,218,4.4,9.7,28,0.00,,CLR,0.00,VWS V14.00,2013-11-11 20:44:00,
2013-11-11 15:49:00,56.5,23.8,30.09,SW,221,5.4,7.0,28,0.00,,CLR,0.00,VWS V14.00,2013-11-11 20:49:00,
2013-11-11 15:54:00,56.7,24.0,30.09,SW,231,5.9,9.9,28,0.00,,CLR,0.00,VWS V14.00,2013-11-11 20:54:00,
2013-11-11 15:59:00,56.7,24.0,30.09,SW,216,3.9,4.8,28,0.00,,CLR,0.00,VWS V14.00,2013-11-11 20:59:00,
2013-11-11 16:04:00,56.5,23.8,30.09,WNW,295,3.0,4.8,28,0.00,,CLR,0.00,VWS V14.00,2013-11-11 21:04:00,
2013-11-11 16:09:00,56.5,23.8,30.09,SSW,200,3.9,6.4,28,0.00,,CLR,0.00,VWS V14.00,2013-11-11 21:09:00,
2013-11-11 16:14:00,56.5,23.8,30.09,South,179,2.5,5.9,28,0.00,,CLR,0.00,VWS V14.00,2013-11-11 21:14:00,
2013-11-11 16:19:00,56.3,23.7,30.09,WSW,243,3.0,3.8,28,0.00,,CLR,0.00,VWS V14.00,2013-11-11 21:19:00,
2013-11-11 16:25:00,56.2,23.5,30.09,SW,216,3.0,4.8,28,0.00,,CLR,0.00,VWS V14.00,2013-11-11 21:25:00,
2013-11-11 16:30:00,55.8,23.2,30.09,SSW,204,2.5,4.8,28,0.00,,CLR,0.00,VWS V14.00,2013-11-11 21:30:00,
2013-11-11 16:35:00,55.4,22.9,30.09,SW,226,3.4,3.8,28,0.00,,CLR,0.00,VWS V14.00,2013-11-11 21:35:00,
2013-11-11 16:40:00,55.1,22.6,30.09,South,191,3.4,4.8,28,0.00,,CLR,0.00,VWS V14.00,2013-11-11 21:40:00,
2013-11-11 16:45:00,54.9,22.4,30.09,South,188,4.4,4.8,28,0.00,,CLR,0.00,VWS V14.00,2013-11-11 21:45:00,
2013-11-11 16:50:00,54.3,22.8,30.09,South,181,0.0,0.0,29,0.00,,CLR,0.00,VWS V14.00,2013-11-11 21:50:00,
2013-11-11 16:55:00,54.1,22.6,30.09,South,186,2.5,2.7,29,0.00,,CLR,0.00,VWS V14.00,2013-11-11 21:55:00,
2013-11-11 17:00:00,53.8,22.3,30.09,SSW,205,3.4,4.8,29,0.00,,CLR,0.00,VWS V14.00,2013-11-11 22:00:00,
2013-11-11 17:05:00,53.6,22.1,30.09,SSW,205,0.0,2.7,29,0.00,,CLR,0.00,VWS V14.00,2013-11-11 22:05:00,
2013-11-11 17:10:00,53.0,21.6,30.09,SSW,205,0.0,0.0,29,0.00,,CLR,0.00,VWS V14.00,2013-11-11 22:10:00,
2013-11-11 17:16:00,52.7,21.3,30.09,SSW,205,0.0,3.2,29,0.00,,CLR,0.00,VWS V14.00,2013-11-11 22:16:00,
2013-11-11 17:21:00,52.3,21.8,30.09,WSW,256,0.0,3.2,30,0.00,,CLR,0.00,VWS V14.00,2013-11-11 22:21:00,
2013-11-11 17:26:00,52.1,21.6,30.09,South,172,5.9,6.4,30,0.00,,CLR,0.00,VWS V14.00,2013-11-11 22:26:00,
2013-11-11 17:31:00,51.8,21.3,30.09,WSW,243,2.5,2.7,30,0.00,,CLR,0.00,VWS V14.00,2013-11-11 22:31:00,
2013-11-11 17:36:00,51.4,21.0,30.09,SSW,213,0.0,0.0,30,0.00,,CLR,0.00,VWS V14.00,2013-11-11 22:36:00,
2013-11-11 17:41:00,51.0,20.7,30.09,SSW,213,0.0,0.0,30,0.00,,CLR,0.00,VWS V14.00,2013-11-11 22:41:00,
2013-11-11 17:46:00,50.5,20.2,30.09,NW,322,3.4,3.8,30,0.00,,CLR,0.00,VWS V14.00,2013-11-11 22:46:00,
2013-11-11 17:51:00,50.1,20.7,30.09,NNW,332,2.5,3.2,31,0.00,,CLR,0.00,VWS V14.00,2013-11-11 22:51:00,
2013-11-11 17:56:00,49.7,20.3,30.09,NNW,332,0.0,0.0,31,0.00,,CLR,0.00,VWS V14.00,2013-11-11 22:56:00,
2013-11-11 18:01:00,49.5,20.2,30.09,NNW,332,0.0,0.0,31,0.00,,FEW090,0.00,VWS V14.00,2013-11-11 23:01:00,
2013-11-11 18:06:00,49.2,19.9,30.09,NNW,331,0.0,0.0,31,0.00,,FEW090,0.00,VWS V14.00,2013-11-11 23:06:00,
2013-11-11 18:11:00,49.0,19.7,30.09,NNW,331,0.0,0.0,31,0.00,,FEW090,0.00,VWS V14.00,2013-11-11 23:11:00,
2013-11-11 18:16:00,48.5,20.0,30.09,NNW,332,0.0,0.0,32,0.00,,FEW090,0.00,VWS V14.00,2013-11-11 23:16:00,
2013-11-11 18:21:00,48.1,19.6,30.09,NNW,331,0.0,0.0,32,0.00,,FEW090,0.00,VWS V14.00,2013-11-11 23:21:00,
2013-11-11 18:27:00,47.9,19.5,30.09,North,353,0.0,0.0,32,0.00,,FEW090,0.00,VWS V14.00,2013-11-11 23:27:00,
2013-11-11 18:32:00,47.7,19.3,30.09,North,353,0.0,0.0,32,0.00,,FEW090,0.00,VWS V14.00,2013-11-11 23:32:00,
2013-11-11 18:37:00,47.3,19.7,30.09,North,353,0.0,0.0,33,0.00,,FEW090,0.00,VWS V14.00,2013-11-11 23:37:00,
2013-11-11 18:42:00,47.0,19.4,30.09,North,353,0.0,0.0,33,0.00,,FEW090,0.00,VWS V14.00,2013-11-11 23:42:00,
2013-11-11 18:47:00,46.6,19.8,30.09,North,353,0.0,0.0,34,0.00,,FEW090,0.00,VWS V14.00,2013-11-11 23:47:00,
2013-11-11 18:52:00,46.4,19.6,30.09,North,353,0.0,0.0,34,0.00,,FEW090,0.00,VWS V14.00,2013-11-11 23:52:00,
2013-11-11 18:57:00,46.1,19.3,30.09,North,353,0.0,0.0,34,0.00,,FEW090,0.00,VWS V14.00,2013-11-11 23:57:00,
2013-11-11 19:02:00,45.9,19.8,30.09,North,353,0.0,0.0,35,0.00,,FEW120,0.00,VWS V14.00,2013-11-12 00:02:00,
2013-11-11 19:07:00,45.3,19.3,30.09,North,353,0.0,0.0,35,0.00,,FEW120,0.00,VWS V14.00,2013-11-12 00:07:00,
2013-11-11 19:12:00,45.1,19.8,30.09,North,353,0.0,0.0,36,0.00,,FEW120,0.00,VWS V14.00,2013-11-12 00:12:00,
2013-11-11 19:17:00,44.8,19.5,30.09,North,353,0.0,0.0,36,0.00,,FEW120,0.00,VWS V14.00,2013-11-12 00:17:00,
2013-11-11 19:22:00,44.4,19.8,30.09,North,353,0.0,2.7,37,0.00,,FEW120,0.00,VWS V14.00,2013-11-12 00:22:00,
2013-11-11 19:27:00,44.2,19.6,30.09,North,353,0.0,0.0,37,0.00,,FEW120,0.00,VWS V14.00,2013-11-12 00:27:00,
2013-11-11 19:32:00,43.9,19.3,30.09,North,353,0.0,0.0,37,0.00,,FEW120,0.00,VWS V14.00,2013-11-12 00:32:00,
2013-11-11 19:38:00,43.7,19.1,30.09,North,353,0.0,0.0,37,0.00,,FEW120,0.00,VWS V14.00,2013-11-12 00:38:00,
2013-11-11 19:43:00,43.5,19.0,30.09,North,353,0.0,0.0,37,0.00,,FEW120,0.00,VWS V14.00,2013-11-12 00:43:00,
2013-11-11 19:48:00,43.3,19.4,30.09,North,353,0.0,0.0,38,0.00,,FEW120,0.00,VWS V14.00,2013-11-12 00:48:00,
2013-11-11 19:53:00,43.1,19.3,30.09,North,353,0.0,0.0,38,0.00,,FEW120,0.00,VWS V14.00,2013-11-12 00:53:00,
2013-11-11 19:58:00,43.1,19.3,30.09,North,353,0.0,0.0,38,0.00,,FEW120,0.00,VWS V14.00,2013-11-12 00:58:00,
2013-11-11 20:03:00,42.8,18.9,30.09,North,353,0.0,0.0,38,0.00,,BKN120,0.00,VWS V14.00,2013-11-12 01:03:00,
2013-11-11 20:08:00,42.2,18.4,30.09,North,353,0.0,0.0,38,0.00,,BKN120,0.00,VWS V14.00,2013-11-12 01:08:00,
2013-11-11 20:13:00,42.2,18.4,30.09,North,353,0.0,0.0,38,0.00,,BKN120,0.00,VWS V14.00,2013-11-12 01:13:00,
2013-11-11 20:18:00,42.2,18.4,30.09,North,353,0.0,0.0,38,0.00,,BKN120,0.00,VWS V14.00,2013-11-12 01:18:00,
2013-11-11 20:23:00,42.0,18.3,30.09,ESE,122,0.0,0.0,38,0.00,,BKN120,0.00,VWS V14.00,2013-11-12 01:23:00,
2013-11-11 20:28:00,41.8,18.1,30.09,ENE,70,0.0,0.0,38,0.00,,BKN120,0.00,VWS V14.00,2013-11-12 01:28:00,
2013-11-11 20:33:00,41.3,18.2,30.06,ESE,106,2.5,3.2,39,0.00,,BKN120,0.00,VWS V14.00,2013-11-12 01:33:00,
2013-11-11 20:38:00,41.1,18.0,30.06,West,275,0.0,0.0,39,0.00,,BKN120,0.00,VWS V14.00,2013-11-12 01:38:00,
2013-11-11 20:43:00,40.5,17.6,30.06,ESE,115,3.4,3.8,39,0.00,,BKN120,0.00,VWS V14.00,2013-11-12 01:43:00,
2013-11-11 20:48:00,40.5,18.1,30.06,West,280,0.0,0.0,40,0.00,,BKN120,0.00,VWS V14.00,2013-11-12 01:48:00,
2013-11-11 20:53:00,40.5,18.1,30.06,West,280,0.0,0.0,40,0.00,,BKN120,0.00,VWS V14.00,2013-11-12 01:53:00,
2013-11-11 20:59:00,40.5,18.1,30.06,ESE,114,3.4,3.8,40,0.00,,BKN120,0.00,VWS V14.00,2013-11-12 01:59:00,
2013-11-11 21:04:00,40.7,18.3,30.06,NNE,21,0.0,0.0,40,0.00,,BKN100,0.00,VWS V14.00,2013-11-12 02:04:00,
2013-11-11 21:09:00,40.7,18.3,30.06,ENE,71,0.0,2.7,40,0.00,,BKN100,0.00,VWS V14.00,2013-11-12 02:09:00,
2013-11-11 21:14:00,40.5,18.1,30.06,SE,127,2.5,3.8,40,0.00,,BKN100,0.00,VWS V14.00,2013-11-12 02:14:00,
2013-11-11 21:19:00,40.7,18.3,30.06,SSW,207,0.0,0.0,40,0.00,,BKN100,0.00,VWS V14.00,2013-11-12 02:19:00,
2013-11-11 21:24:00,40.4,18.5,30.06,North,6,0.0,0.0,41,0.00,,BKN100,0.00,VWS V14.00,2013-11-12 02:24:00,
2013-11-11 21:29:00,40.0,18.8,30.06,NNE,17,0.0,0.0,42,0.00,,BKN100,0.00,VWS V14.00,2013-11-12 02:29:00,
2013-11-11 21:34:00,39.8,18.6,30.06,NW,324,3.4,4.3,42,0.00,,BKN100,0.00,VWS V14.00,2013-11-12 02:34:00,
2013-11-11 21:39:00,39.8,18.6,30.06,NNW,327,0.0,0.0,42,0.00,,BKN100,0.00,VWS V14.00,2013-11-12 02:39:00,
2013-11-11 21:44:00,39.6,18.5,30.06,ESE,121,3.0,3.2,42,0.00,,BKN100,0.00,VWS V14.00,2013-11-12 02:44:00,
2013-11-11 21:49:00,39.5,18.8,30.06,East,91,0.0,0.0,43,0.00,,BKN100,0.00,VWS V14.00,2013-11-12 02:49:00,
2013-11-11 21:54:00,39.5,19.9,30.06,ESE,106,0.0,3.8,45,0.00,,BKN100,0.00,VWS V14.00,2013-11-12 02:54:00,
2013-11-11 21:59:00,39.5,19.9,30.06,ESE,103,0.0,0.0,45,0.00,,BKN100,0.00,VWS V14.00,2013-11-12 02:59:00,
2013-11-11 22:04:00,39.5,19.9,30.06,NNW,335,2.5,4.3,45,0.00,,OVC110,0.00,VWS V14.00,2013-11-12 03:04:00,
2013-11-11 22:09:00,39.3,19.7,30.06,North,357,0.0,3.2,45,0.00,,OVC110,0.00,VWS V14.00,2013-11-12 03:09:00,
2013-11-11 22:15:00,39.5,19.9,30.06,NW,322,2.5,4.3,45,0.00,,OVC110,0.00,VWS V14.00,2013-11-12 03:15:00,
2013-11-11 22:20:00,39.3,20.2,30.06,SE,126,0.0,3.8,46,0.00,,OVC110,0.00,VWS V14.00,2013-11-12 03:20:00,
2013-11-11 22:25:00,38.9,21.9,30.06,East,92,3.9,4.8,50,0.00,,OVC110,0.00,VWS V14.00,2013-11-12 03:25:00,
2013-11-11 22:30:00,39.3,21.7,30.06,WNW,291,0.0,0.0,49,0.00,,OVC110,0.00,VWS V14.00,2013-11-12 03:30:00,
2013-11-11 22:35:00,39.5,21.9,30.06,SE,132,4.9,5.4,49,0.00,,OVC110,0.00,VWS V14.00,2013-11-12 03:35:00,
2013-11-11 22:40:00,40.5,20.9,30.06,NW,318,6.4,7.0,45,0.00,,OVC110,0.00,VWS V14.00,2013-11-12 03:40:00,
2013-11-11 22:45:00,39.8,21.2,30.06,SSE,154,4.4,4.8,47,0.00,,OVC110,0.00,VWS V14.00,2013-11-12 03:45:00,
2013-11-11 22:50:00,40.4,21.2,30.06,SSE,149,3.4,4.8,46,0.00,,OVC110,0.00,VWS V14.00,2013-11-12 03:50:00,
2013-11-11 22:55:00,40.4,21.2,30.06,South,171,0.0,2.7,46,0.00,,OVC110,0.00,VWS V14.00,2013-11-12 03:55:00,
2013-11-11 23:00:00,40.4,21.8,30.06,NW,312,5.4,7.0,47,0.00,,OVC110,0.00,VWS V14.00,2013-11-12 04:00:00,
2013-11-11 23:05:00,40.4,22.2,30.06,South,182,3.4,4.3,48,0.00,,OVC110,0.00,VWS V14.00,2013-11-12 04:05:00,
2013-11-11 23:10:00,42.0,20.6,30.06,SE,140,4.4,4.8,42,0.00,,OVC110,0.00,VWS V14.00,2013-11-12 04:10:00,
2013-11-11 23:15:00,43.3,20.6,30.06,SSE,156,6.4,7.0,40,0.00,,OVC110,0.00,VWS V14.00,2013-11-12 04:15:00,
2013-11-11 23:20:00,44.0,20.7,30.06,SSW,199,3.9,6.4,39,0.00,,OVC110,0.00,VWS V14.00,2013-11-12 04:20:00,
2013-11-11 23:25:00,44.2,20.2,30.06,SE,139,3.4,4.3,38,0.00,,OVC110,0.00,VWS V14.00,2013-11-12 04:25:00,
2013-11-11 23:31:00,44.0,20.1,30.03,South,185,3.9,4.8,38,0.00,,OVC110,0.00,VWS V14.00,2013-11-12 04:31:00,
2013-11-11 23:36:00,44.6,20.6,30.03,SSE,163,2.5,5.9,38,0.00,,OVC110,0.00,VWS V14.00,2013-11-12 04:36:00,
2013-11-11 23:41:00,44.8,20.7,30.03,SSE,164,3.0,3.8,38,0.00,,OVC110,0.00,VWS V14.00,2013-11-12 04:41:00,
2013-11-11 23:46:00,45.5,20.8,30.03,South,186,6.4,7.0,37,0.00,,OVC110,0.00,VWS V14.00,2013-11-12 04:46:00,
2013-11-11 23:51:00,45.7,20.9,30.03,SSW,201,3.4,4.8,37,0.00,,OVC110,0.00,VWS V14.00,2013-11-12 04:51:00,
2013-11-11 23:56:00,45.9,21.1,30.03,SSW,197,4.4,6.4,37,0.00,,OVC110,0.00,VWS V14.00,2013-11-12 04:56:00,